FREGAT DEB, 45999

Orbit data source: Space-Track

FREGAT DEB, 45999 is space debris in LEO originally from a launch on Mon, 18 Jul 2011 UTC launched from the Tyuratam Missile And Space Complex (TTMTR). Debris objects in space refer to the collection of defunct objects orbiting the Earth. Examples of debris include non-operational satellites, rocket bodies, and fragments generated from explosions, collisions, or faulty payload assembly.

Loading next visibility...
FREGAT DEB details
Identifier
45999, 2011-037HA
Orbit
LEO
Last TLE update2 days ago
Origin
Flag of CISVVKO VKS (CIS)
ManufacturerLavochkin
MissionSpacecraft
Bus & MotorUnknown
MassUnknown
Launch date (UTC)
2011-07-18 (13 years ago)
Launch vehicleUnknown
Launch site
Tyuratam Missile And Space Complex (TTMTR)
Object type
Payload
Rocket body
Debris
Shape & HBRUnknown
Radar Cross SectionSmall (<0.1 m²)

Expand to show TLE details & history

TLE from 2 days ago
0 FREGAT DEB
1 45999U 11037HA  24359.89739404  .00002278  00000-0  59150-2 0  9996
2 45999  51.4638 328.0245 2142625 349.0002   7.0190 10.05955261161873
Epoch: 2024-12-24T21:32Z
Definitive object data (Epoch: 2024-12-24T21:32:14.845Z)
Latitude0.00004°
Longitude-88.93623°
Altitude768.46 km
Speed8.222 km/s
True Right ascension21h 52m 05s
True Declination0° 00' 00"
Sunlit
Object was in daylight at TLE epoch
Visualization TLE readout
Latitude-9.7744°
Longitude95.24368°
Altitude4,441.441 km
Speed5.453 km/s
Apparent Right ascension08h 43m 05s
Apparent Declination-24° 35' 18"
Sunlit
Object is in daylight
Visualization observer readout
Local Sidereal Time17:12:19
Azimuth272.732° WNW
Elevation-43.607°
Doppler factor1
Orbital elements
Apogee altitude4,629.213 km
Perigee altitude744.613 km
Semi-major axis9,065.05 km
Eccentricity0.2142625
Inclination51.4638°
RAAN328.0245°
Arg. of periapsis349.0002°
True anomaly11.08052°
Mean anomaly7.019°
Eccentric anomaly8.92318°
Mean motion2.51471 °/min
BSTAR0.005915
Orbital period143.16 mins
Loading maneuver chart data...
Loading historical data...
Loading historical data...
Loading historical data...
Loading historical data...
Loading historical data...
Loading historical data...
Loading historical data...

FREGAT DEB Visibility forecast

Observer location: undefined°, undefined

Span
Click to sort rows by Start time (UTC) header in descending order
Start Az.
Max El. time (UTC)
Max El. Az.
Max El.
End time (UTC)
End Az.
15 mins2024-12-26 23:44:55.297Z193.415° SSW2024-12-26 23:49:55.297Z124.931° SE35.811°2024-12-26 23:59:55.297Z57.245° ENE
22 mins2024-12-27 02:13:55.297Z267.99° W2024-12-27 02:19:55.297Z335.43° NNW40.446°2024-12-27 02:35:55.297Z60.394° ENE
33 mins2024-12-27 04:44:55.297Z301.787° NW2024-12-27 04:54:55.297Z15.621° NNE39.951°2024-12-27 05:17:55.297Z92.935° ESE
43 mins2024-12-27 07:14:55.297Z305.889° NW2024-12-27 07:29:55.297Z246.626° WSW44.96°2024-12-27 07:57:55.297Z135.858° SSE
40 mins2024-12-27 09:46:55.297Z296.536° NW2024-12-27 10:03:55.297Z239.421° WSW32.504°2024-12-27 10:26:55.297Z182.804° SSW
|